Year,Month,Day,Hour,Minute,Value (Times are PST for temperature in C)
2018,07,14,00,00,16.60
2018,07,14,00,01,16.60
2018,07,14,00,02,16.60
2018,07,14,00,03,16.60
2018,07,14,00,04,16.60
2018,07,14,00,05,16.50
2018,07,14,00,06,16.50
2018,07,14,00,07,16.50
2018,07,14,00,08,16.50
2018,07,14,00,09,16.50
2018,07,14,00,10,16.50
2018,07,14,00,11,16.40
2018,07,14,00,12,16.40
2018,07,14,00,13,16.40
2018,07,14,00,14,16.40
2018,07,14,00,15,16.40
2018,07,14,00,16,16.40
2018,07,14,00,17,16.40
2018,07,14,00,18,16.40
2018,07,14,00,19,16.40
2018,07,14,00,20,16.40
2018,07,14,00,21,16.40
2018,07,14,00,22,16.40
2018,07,14,00,23,16.50
2018,07,14,00,24,16.50
2018,07,14,00,25,16.60
2018,07,14,00,26,16.60
2018,07,14,00,27,16.70
2018,07,14,00,28,16.70
2018,07,14,00,29,16.80
2018,07,14,00,30,16.80
2018,07,14,00,31,16.80
2018,07,14,00,32,16.90
2018,07,14,00,33,16.80
2018,07,14,00,34,16.80
2018,07,14,00,35,16.80
2018,07,14,00,36,16.80
2018,07,14,00,37,16.80
2018,07,14,00,38,16.80
2018,07,14,00,39,16.80
2018,07,14,00,40,16.80
2018,07,14,00,41,16.80
2018,07,14,00,42,16.80
2018,07,14,00,43,16.80
2018,07,14,00,44,16.80
2018,07,14,00,45,16.70
2018,07,14,00,46,16.70
2018,07,14,00,47,16.70
2018,07,14,00,48,16.70
2018,07,14,00,49,16.70
2018,07,14,00,50,16.70
2018,07,14,00,51,16.70
2018,07,14,00,52,16.70
2018,07,14,00,53,16.70
2018,07,14,00,54,16.70
2018,07,14,00,55,16.70
2018,07,14,00,56,16.70
2018,07,14,00,57,16.70
2018,07,14,00,58,16.70
2018,07,14,00,59,16.60
2018,07,14,01,00,16.60
2018,07,14,01,01,16.60
2018,07,14,01,02,16.60
2018,07,14,01,03,16.50
2018,07,14,01,04,16.50
2018,07,14,01,05,16.50
2018,07,14,01,06,16.40
2018,07,14,01,07,16.40
2018,07,14,01,08,16.40
2018,07,14,01,09,16.40
2018,07,14,01,10,16.40
2018,07,14,01,11,16.40
2018,07,14,01,12,16.40
2018,07,14,01,13,16.40
2018,07,14,01,14,16.40
2018,07,14,01,15,16.40
2018,07,14,01,16,16.40
2018,07,14,01,17,16.40
2018,07,14,01,18,16.40
2018,07,14,01,19,16.40
2018,07,14,01,20,16.30
2018,07,14,01,21,16.30
2018,07,14,01,22,16.30
2018,07,14,01,23,16.30
2018,07,14,01,24,16.30
2018,07,14,01,25,16.30
2018,07,14,01,26,16.30
2018,07,14,01,27,16.30
2018,07,14,01,28,16.30
2018,07,14,01,29,16.30
2018,07,14,01,30,16.30
2018,07,14,01,31,16.30
2018,07,14,01,32,16.30
2018,07,14,01,33,16.30
2018,07,14,01,34,16.30
2018,07,14,01,35,16.30
2018,07,14,01,36,16.30
2018,07,14,01,37,16.30
2018,07,14,01,38,16.30
2018,07,14,01,39,16.30
2018,07,14,01,40,16.30
2018,07,14,01,41,16.30
2018,07,14,01,42,16.30
2018,07,14,01,43,16.30
2018,07,14,01,44,16.30
2018,07,14,01,45,16.30
2018,07,14,01,46,16.30
2018,07,14,01,47,16.20
2018,07,14,01,48,16.20
2018,07,14,01,49,16.20
2018,07,14,01,50,16.20
2018,07,14,01,51,16.20
2018,07,14,01,52,16.20
2018,07,14,01,53,16.10
2018,07,14,01,54,16.10
2018,07,14,01,55,16.10
2018,07,14,01,56,16.00
2018,07,14,01,57,15.90
2018,07,14,01,58,15.90
2018,07,14,01,59,15.90
2018,07,14,02,00,15.90
2018,07,14,02,01,15.80
2018,07,14,02,02,15.80
2018,07,14,02,03,15.80
2018,07,14,02,04,15.80
2018,07,14,02,05,15.80
2018,07,14,02,06,15.70
2018,07,14,02,07,15.70
2018,07,14,02,08,15.70
2018,07,14,02,09,15.60
2018,07,14,02,10,15.60
2018,07,14,02,11,15.60
2018,07,14,02,12,15.60
2018,07,14,02,13,15.60
2018,07,14,02,14,15.60
2018,07,14,02,15,15.60
2018,07,14,02,16,15.60
2018,07,14,02,17,15.60
2018,07,14,02,18,15.60
2018,07,14,02,19,15.60
2018,07,14,02,20,15.60
2018,07,14,02,21,15.50
2018,07,14,02,22,15.50
2018,07,14,02,23,15.50
2018,07,14,02,24,15.40
2018,07,14,02,25,15.40
2018,07,14,02,26,15.40
2018,07,14,02,27,15.40
2018,07,14,02,28,15.40
2018,07,14,02,29,15.30
2018,07,14,02,30,15.30
2018,07,14,02,31,15.20
2018,07,14,02,32,15.20
2018,07,14,02,33,15.10
2018,07,14,02,34,15.10
2018,07,14,02,35,15.00
2018,07,14,02,36,15.00
2018,07,14,02,37,15.10
2018,07,14,02,38,15.10
2018,07,14,02,39,15.10
2018,07,14,02,40,15.10
2018,07,14,02,41,15.20
2018,07,14,02,42,15.20
2018,07,14,02,43,15.10
2018,07,14,02,44,15.20
2018,07,14,02,45,15.20
2018,07,14,02,46,15.20
2018,07,14,02,47,15.10
2018,07,14,02,48,15.10
2018,07,14,02,49,15.10
2018,07,14,02,50,15.10
2018,07,14,02,51,15.00
2018,07,14,02,52,15.00
2018,07,14,02,53,15.00
2018,07,14,02,54,15.00
2018,07,14,02,55,15.00
2018,07,14,02,56,15.00
2018,07,14,02,57,15.00
2018,07,14,02,58,15.10
2018,07,14,02,59,15.10
2018,07,14,03,00,15.10
2018,07,14,03,01,15.10
2018,07,14,03,02,15.00
2018,07,14,03,03,15.00
2018,07,14,03,04,15.00
2018,07,14,03,05,15.00
2018,07,14,03,06,15.00
2018,07,14,03,07,15.00
2018,07,14,03,08,15.00
2018,07,14,03,09,14.90
2018,07,14,03,10,14.90
2018,07,14,03,11,14.90
2018,07,14,03,12,14.90
2018,07,14,03,13,14.90
2018,07,14,03,14,14.90
2018,07,14,03,15,14.90
2018,07,14,03,16,14.90
2018,07,14,03,17,14.90
2018,07,14,03,18,14.80
2018,07,14,03,19,14.80
2018,07,14,03,20,14.80
2018,07,14,03,21,14.80
2018,07,14,03,22,14.80
2018,07,14,03,23,14.80
2018,07,14,03,24,14.70
2018,07,14,03,25,14.70
2018,07,14,03,26,14.70
2018,07,14,03,27,14.70
2018,07,14,03,28,14.70
2018,07,14,03,29,14.70
2018,07,14,03,30,14.60
2018,07,14,03,31,14.60
2018,07,14,03,32,14.60
2018,07,14,03,33,14.60
2018,07,14,03,34,14.60
2018,07,14,03,35,14.60
2018,07,14,03,36,14.60
2018,07,14,03,37,14.60
2018,07,14,03,38,14.60
2018,07,14,03,39,14.60
2018,07,14,03,40,14.60
2018,07,14,03,41,14.60
2018,07,14,03,42,14.60
2018,07,14,03,43,14.60
2018,07,14,03,44,14.60
2018,07,14,03,45,14.60
2018,07,14,03,46,14.60
2018,07,14,03,47,14.60
2018,07,14,03,48,14.60
2018,07,14,03,49,14.60
2018,07,14,03,50,14.60
2018,07,14,03,51,14.60
2018,07,14,03,52,14.50
2018,07,14,03,53,14.50
2018,07,14,03,54,14.50
2018,07,14,03,55,14.50
2018,07,14,03,56,14.50
2018,07,14,03,57,14.40
2018,07,14,03,58,14.40
2018,07,14,03,59,14.40
2018,07,14,04,00,14.40
2018,07,14,04,01,14.40
2018,07,14,04,02,14.40
2018,07,14,04,03,14.30
2018,07,14,04,04,14.30
2018,07,14,04,08,14.30
2018,07,14,04,09,14.30
2018,07,14,04,10,14.30
2018,07,14,04,11,14.30
2018,07,14,04,12,14.30
2018,07,14,04,13,14.30
2018,07,14,04,14,14.30
2018,07,14,04,15,14.30
2018,07,14,04,16,14.30
2018,07,14,04,17,14.20
2018,07,14,04,18,14.20
2018,07,14,04,19,14.20
2018,07,14,04,20,14.20
2018,07,14,04,21,14.20
2018,07,14,04,22,14.20
2018,07,14,04,23,14.20
2018,07,14,04,24,14.20
2018,07,14,04,25,14.20
2018,07,14,04,26,14.20
2018,07,14,04,27,14.20
2018,07,14,04,28,14.20
2018,07,14,04,29,14.30
2018,07,14,04,30,14.30
2018,07,14,04,31,14.30
2018,07,14,04,32,14.30
2018,07,14,04,33,14.30
2018,07,14,04,34,14.30
2018,07,14,04,35,14.30
2018,07,14,04,36,14.30
2018,07,14,04,37,14.30
2018,07,14,04,38,14.30
2018,07,14,04,39,14.30
2018,07,14,04,40,14.30
2018,07,14,04,41,14.30
2018,07,14,04,42,14.30
2018,07,14,04,43,14.30
2018,07,14,04,44,14.30
2018,07,14,04,45,14.30
2018,07,14,04,46,14.20
2018,07,14,04,47,14.20
2018,07,14,04,48,14.20
2018,07,14,04,49,14.20
2018,07,14,04,50,14.20
2018,07,14,04,51,14.20
2018,07,14,04,52,14.20
2018,07,14,04,53,14.20
2018,07,14,04,54,14.20
2018,07,14,04,55,14.20
2018,07,14,04,56,14.20
2018,07,14,04,57,14.20
2018,07,14,04,58,14.20
2018,07,14,04,59,14.20
2018,07,14,05,00,14.20
2018,07,14,05,01,14.20
2018,07,14,05,02,14.20
2018,07,14,05,03,14.20
2018,07,14,05,04,14.20
2018,07,14,05,05,14.20
2018,07,14,05,06,14.20
2018,07,14,05,07,14.20
2018,07,14,05,08,14.20
2018,07,14,05,09,14.20
2018,07,14,05,10,14.20
2018,07,14,05,11,14.20
2018,07,14,05,12,14.10
2018,07,14,05,13,14.10
2018,07,14,05,14,14.10
2018,07,14,05,15,14.10
2018,07,14,05,16,14.10
2018,07,14,05,17,14.20
2018,07,14,05,18,14.20
2018,07,14,05,19,14.10
2018,07,14,05,20,14.20
2018,07,14,05,21,14.20
2018,07,14,05,22,14.10
2018,07,14,05,23,14.10
2018,07,14,05,24,14.10
2018,07,14,05,25,14.10
2018,07,14,05,26,14.20
2018,07,14,05,27,14.20
2018,07,14,05,28,14.20
2018,07,14,05,29,14.20
2018,07,14,05,30,14.30
2018,07,14,05,31,14.30
2018,07,14,05,32,14.30
2018,07,14,05,33,14.30
2018,07,14,05,34,14.30
2018,07,14,05,35,14.30
2018,07,14,05,36,14.30
2018,07,14,05,37,14.30
2018,07,14,05,38,14.30
2018,07,14,05,39,14.30
2018,07,14,05,40,14.40
2018,07,14,05,41,14.40
2018,07,14,05,42,14.40
2018,07,14,05,43,14.50
2018,07,14,05,44,14.50
2018,07,14,05,45,14.50
2018,07,14,05,46,14.50
2018,07,14,05,47,14.50
2018,07,14,05,48,14.50
2018,07,14,05,49,14.50
2018,07,14,05,50,14.50
2018,07,14,05,51,14.60
2018,07,14,05,52,14.60
2018,07,14,05,53,14.60
2018,07,14,05,54,14.50
2018,07,14,05,55,14.60
2018,07,14,05,56,14.60
2018,07,14,05,57,14.60
2018,07,14,05,58,14.60
2018,07,14,05,59,14.70
2018,07,14,06,00,14.80
2018,07,14,06,01,14.90
2018,07,14,06,02,15.00
2018,07,14,06,03,15.10
2018,07,14,06,04,15.10
2018,07,14,06,05,15.20
2018,07,14,06,06,15.30
2018,07,14,06,07,15.30
2018,07,14,06,08,15.30
2018,07,14,06,09,15.30
2018,07,14,06,10,15.30
2018,07,14,06,11,15.30
2018,07,14,06,12,15.30
2018,07,14,06,13,15.30
2018,07,14,06,14,15.30
2018,07,14,06,15,15.30
2018,07,14,06,16,15.20
2018,07,14,06,17,15.20
2018,07,14,06,18,15.20
2018,07,14,06,19,15.20
2018,07,14,06,20,15.20
2018,07,14,06,21,15.20
2018,07,14,06,22,15.20
2018,07,14,06,23,15.10
2018,07,14,06,24,15.10
2018,07,14,06,25,15.10
2018,07,14,06,26,15.00
2018,07,14,06,27,15.00
2018,07,14,06,28,14.90
2018,07,14,06,29,14.90
2018,07,14,06,30,14.90
2018,07,14,06,31,14.90
2018,07,14,06,32,14.90
2018,07,14,06,33,14.90
2018,07,14,06,34,14.90
2018,07,14,06,35,14.90
2018,07,14,06,36,14.90
2018,07,14,06,37,14.90
2018,07,14,06,38,14.90
2018,07,14,06,39,14.90
2018,07,14,06,40,14.90
2018,07,14,06,41,14.90
2018,07,14,06,42,14.90
2018,07,14,06,43,14.90
2018,07,14,06,44,14.90
2018,07,14,06,45,14.90
2018,07,14,06,46,15.00
2018,07,14,06,47,15.00
2018,07,14,06,48,15.10
2018,07,14,06,49,15.10
2018,07,14,06,50,15.20
2018,07,14,06,51,15.20
2018,07,14,06,52,15.30
2018,07,14,06,53,15.40
2018,07,14,06,54,15.50
2018,07,14,06,55,15.50
2018,07,14,06,56,15.70
2018,07,14,06,57,15.70
2018,07,14,06,58,15.80
2018,07,14,06,59,15.90
2018,07,14,07,00,16.00
2018,07,14,07,01,16.10
2018,07,14,07,02,16.20
2018,07,14,07,03,16.30
2018,07,14,07,04,16.40
2018,07,14,07,05,16.40
2018,07,14,07,06,16.50
2018,07,14,07,07,16.60
2018,07,14,07,08,16.60
2018,07,14,07,09,16.70
2018,07,14,07,10,16.80
2018,07,14,07,11,16.80
2018,07,14,07,12,16.90
2018,07,14,07,13,17.00
2018,07,14,07,14,17.10
2018,07,14,07,15,17.20
2018,07,14,07,16,17.30
2018,07,14,07,17,17.40
2018,07,14,07,18,17.50
2018,07,14,07,19,17.60
2018,07,14,07,20,17.70
2018,07,14,07,21,17.80
2018,07,14,07,22,17.90
2018,07,14,07,23,18.00
2018,07,14,07,24,18.00
2018,07,14,07,25,18.10
2018,07,14,07,26,18.10
2018,07,14,07,27,18.20
2018,07,14,07,28,18.20
2018,07,14,07,29,18.30
2018,07,14,07,30,18.30
2018,07,14,07,31,18.40
2018,07,14,07,32,18.40
2018,07,14,07,33,18.50
2018,07,14,07,34,18.60
2018,07,14,07,35,18.60
2018,07,14,07,36,18.70
2018,07,14,07,37,18.80
2018,07,14,07,38,18.80
2018,07,14,07,39,18.90
2018,07,14,07,40,18.90
2018,07,14,07,41,19.00
2018,07,14,07,42,19.00
2018,07,14,07,43,19.10
2018,07,14,07,44,19.10
2018,07,14,07,45,19.10
2018,07,14,07,46,19.20
2018,07,14,07,47,19.20
2018,07,14,07,48,19.20
2018,07,14,07,49,19.30
2018,07,14,07,50,19.30
2018,07,14,07,51,19.30
2018,07,14,07,52,19.30
2018,07,14,07,53,19.40
2018,07,14,07,54,19.40
2018,07,14,07,55,19.40
2018,07,14,07,56,19.50
2018,07,14,07,57,19.50
2018,07,14,07,58,19.60
2018,07,14,07,59,19.70
2018,07,14,08,00,19.70
2018,07,14,08,01,19.80
2018,07,14,08,02,19.80
2018,07,14,08,03,19.80
2018,07,14,08,04,19.90
2018,07,14,08,05,19.90
2018,07,14,08,06,19.90
2018,07,14,08,07,19.90
2018,07,14,08,08,19.90
2018,07,14,08,09,19.90
2018,07,14,08,10,19.90
2018,07,14,08,11,19.90
2018,07,14,08,12,19.90
2018,07,14,08,13,19.90
2018,07,14,08,14,19.90
2018,07,14,08,15,19.90
2018,07,14,08,16,19.90
2018,07,14,08,17,19.90
2018,07,14,08,18,19.90
2018,07,14,08,19,19.90
2018,07,14,08,20,19.90
2018,07,14,08,21,19.90
2018,07,14,08,22,19.90
2018,07,14,08,23,19.90
2018,07,14,08,24,19.90
2018,07,14,08,25,20.00
2018,07,14,08,26,20.00
2018,07,14,08,27,20.00
2018,07,14,08,28,20.00
2018,07,14,08,29,20.00
2018,07,14,08,30,20.00
2018,07,14,08,31,20.00
2018,07,14,08,32,20.00
2018,07,14,08,33,20.00
2018,07,14,08,34,20.00
2018,07,14,08,35,19.90
2018,07,14,08,36,19.90
2018,07,14,08,37,19.90
2018,07,14,08,38,19.90
2018,07,14,08,39,19.90
2018,07,14,08,40,19.90
2018,07,14,08,41,19.90
2018,07,14,08,42,19.80
2018,07,14,08,43,19.80
2018,07,14,08,44,19.80
2018,07,14,08,45,19.90
2018,07,14,08,46,19.90
2018,07,14,08,47,19.90
2018,07,14,08,48,20.00
2018,07,14,08,49,20.00
2018,07,14,08,50,20.10
2018,07,14,08,51,20.20
2018,07,14,08,52,20.20
2018,07,14,08,53,20.30
2018,07,14,08,54,20.30
2018,07,14,08,55,20.40
2018,07,14,08,56,20.40
2018,07,14,08,57,20.40
2018,07,14,08,58,20.50
2018,07,14,08,59,20.60
2018,07,14,09,00,20.60
2018,07,14,09,01,20.60
2018,07,14,09,02,20.70
2018,07,14,09,03,20.70
2018,07,14,09,04,20.70
2018,07,14,09,05,20.80
2018,07,14,09,06,20.80
2018,07,14,09,07,20.90
2018,07,14,09,08,20.90
2018,07,14,09,09,21.00
2018,07,14,09,10,21.10
2018,07,14,09,11,21.10
2018,07,14,09,12,21.10
2018,07,14,09,13,21.10
2018,07,14,09,14,21.10
2018,07,14,09,15,21.10
2018,07,14,09,16,21.20
2018,07,14,09,17,21.20
2018,07,14,09,18,21.20
2018,07,14,09,19,21.20
2018,07,14,09,20,21.20
2018,07,14,09,21,21.30
2018,07,14,09,22,21.30
2018,07,14,09,23,21.40
2018,07,14,09,24,21.50
2018,07,14,09,25,21.50
2018,07,14,09,26,21.60
2018,07,14,09,27,21.60
2018,07,14,09,28,21.60
2018,07,14,09,29,21.70
2018,07,14,09,30,21.70
2018,07,14,09,31,21.70
2018,07,14,09,32,21.80
2018,07,14,09,33,21.80
2018,07,14,09,34,21.90
2018,07,14,09,35,21.90
2018,07,14,09,36,22.00
2018,07,14,09,37,22.00
2018,07,14,09,38,22.00
2018,07,14,09,39,22.00
2018,07,14,09,40,22.00
2018,07,14,09,41,22.00
2018,07,14,09,42,21.90
2018,07,14,09,43,21.90
2018,07,14,09,44,21.90
2018,07,14,09,45,21.90
2018,07,14,09,46,21.90
2018,07,14,09,47,21.90
2018,07,14,09,48,21.90
2018,07,14,09,49,22.00
2018,07,14,09,50,22.00
2018,07,14,09,51,22.00
2018,07,14,09,52,22.00
2018,07,14,09,53,22.00
2018,07,14,09,54,22.00
2018,07,14,09,55,22.00
2018,07,14,09,56,22.00
2018,07,14,09,57,22.00
2018,07,14,09,58,22.00
2018,07,14,09,59,21.90
2018,07,14,10,00,21.90
2018,07,14,10,01,22.00
2018,07,14,10,02,22.00
2018,07,14,10,03,22.10
2018,07,14,10,04,22.10
2018,07,14,10,05,22.10
2018,07,14,10,06,22.10
2018,07,14,10,07,22.10
2018,07,14,10,08,22.10
2018,07,14,10,09,22.10
2018,07,14,10,10,22.10
2018,07,14,10,11,22.10
2018,07,14,10,12,22.10
2018,07,14,10,13,22.10
2018,07,14,10,14,22.20
2018,07,14,10,15,22.20
2018,07,14,10,16,22.30
2018,07,14,10,17,22.30
2018,07,14,10,18,22.30
2018,07,14,10,19,22.30
2018,07,14,10,20,22.30
2018,07,14,10,21,22.30
2018,07,14,10,22,22.40
2018,07,14,10,23,22.40
2018,07,14,10,24,22.40
2018,07,14,10,25,22.50
2018,07,14,10,26,22.50
2018,07,14,10,27,22.60
2018,07,14,10,28,22.60
2018,07,14,10,29,22.70
2018,07,14,10,30,22.70
2018,07,14,10,31,22.70
2018,07,14,10,32,22.70
2018,07,14,10,33,22.80
2018,07,14,10,34,22.80
2018,07,14,10,35,22.90
2018,07,14,10,36,22.90
2018,07,14,10,37,22.90
2018,07,14,10,38,22.80
2018,07,14,10,39,22.80
2018,07,14,10,40,22.70
2018,07,14,10,41,22.70
2018,07,14,10,42,22.70
2018,07,14,10,43,22.70
2018,07,14,10,44,22.70
2018,07,14,10,45,22.70
2018,07,14,10,46,22.70
2018,07,14,10,47,22.60
2018,07,14,10,48,22.60
2018,07,14,10,49,22.60
2018,07,14,10,50,22.50
2018,07,14,10,51,22.50
2018,07,14,10,52,22.40
2018,07,14,10,53,22.40
2018,07,14,10,54,22.30
2018,07,14,10,55,22.30
2018,07,14,10,56,22.30
2018,07,14,10,57,22.30
2018,07,14,10,58,22.30
2018,07,14,10,59,22.40
2018,07,14,11,00,22.50
2018,07,14,11,01,22.50
2018,07,14,11,02,22.60
2018,07,14,11,03,22.70
2018,07,14,11,04,22.70
2018,07,14,11,05,22.70
2018,07,14,11,06,22.70
2018,07,14,11,07,22.70
2018,07,14,11,08,22.70
2018,07,14,11,09,22.70
2018,07,14,11,10,22.70
2018,07,14,11,11,22.80
2018,07,14,11,12,22.80
2018,07,14,11,13,22.80
2018,07,14,11,14,22.90
2018,07,14,11,15,22.90
2018,07,14,11,16,23.00
2018,07,14,11,17,23.00
2018,07,14,11,18,23.00
2018,07,14,11,19,23.00
2018,07,14,11,20,22.90
2018,07,14,11,21,22.80
2018,07,14,11,22,22.80
2018,07,14,11,23,22.80
2018,07,14,11,24,22.80
2018,07,14,11,25,22.90
2018,07,14,11,26,23.00
2018,07,14,11,27,23.00
2018,07,14,11,28,23.00
2018,07,14,11,29,23.00
2018,07,14,11,30,23.00
2018,07,14,11,31,23.00
2018,07,14,11,32,23.00
2018,07,14,11,33,23.00
2018,07,14,11,34,23.00
2018,07,14,11,35,23.10
2018,07,14,11,36,23.10
2018,07,14,11,37,23.10
2018,07,14,11,38,23.20
2018,07,14,11,39,23.30
2018,07,14,11,40,23.20
2018,07,14,11,41,23.20
2018,07,14,11,42,23.20
2018,07,14,11,43,23.20
2018,07,14,11,44,23.10
2018,07,14,11,45,23.10
2018,07,14,11,46,23.10
2018,07,14,11,47,23.10
2018,07,14,11,48,23.10
2018,07,14,11,49,23.10
2018,07,14,11,50,23.10
2018,07,14,11,51,23.10
2018,07,14,11,52,23.10
2018,07,14,11,53,23.20
2018,07,14,11,54,23.20
2018,07,14,11,55,23.30
2018,07,14,11,56,23.40
2018,07,14,11,57,23.50
2018,07,14,11,58,23.60
2018,07,14,11,59,23.60
2018,07,14,12,00,23.60
2018,07,14,12,01,23.60
2018,07,14,12,02,23.50
2018,07,14,12,03,23.40
2018,07,14,12,04,23.40
2018,07,14,12,05,23.40
2018,07,14,12,06,23.40
2018,07,14,12,07,23.50
2018,07,14,12,08,23.50
2018,07,14,12,09,23.50
2018,07,14,12,10,23.60
2018,07,14,12,11,23.60
2018,07,14,12,12,23.70
2018,07,14,12,13,23.80
2018,07,14,12,14,23.90
2018,07,14,12,15,23.90
2018,07,14,12,16,24.00
2018,07,14,12,17,23.90
2018,07,14,12,18,23.90
2018,07,14,12,19,23.80
2018,07,14,12,20,23.80
2018,07,14,12,21,23.70
2018,07,14,12,22,23.70
2018,07,14,12,23,23.70
2018,07,14,12,24,23.70
2018,07,14,12,25,23.70
2018,07,14,12,26,23.70
2018,07,14,12,27,23.70
2018,07,14,12,28,23.70
2018,07,14,12,29,23.70
2018,07,14,12,30,23.70
2018,07,14,12,31,23.70
2018,07,14,12,32,23.80
2018,07,14,12,33,23.90
2018,07,14,12,34,24.00
2018,07,14,12,35,24.10
2018,07,14,12,36,24.20
2018,07,14,12,37,24.20
2018,07,14,12,38,24.30
2018,07,14,12,39,24.30
2018,07,14,12,40,24.40
2018,07,14,12,41,24.40
2018,07,14,12,42,24.50
2018,07,14,12,43,24.60
2018,07,14,12,44,24.60
2018,07,14,12,45,24.70
2018,07,14,12,46,24.80
2018,07,14,12,47,24.90
2018,07,14,12,48,25.00
2018,07,14,12,49,25.00
2018,07,14,12,50,25.10
2018,07,14,12,51,25.10
2018,07,14,12,52,25.20
2018,07,14,12,53,25.20
2018,07,14,12,54,25.20
2018,07,14,12,55,25.20
2018,07,14,12,56,25.20
2018,07,14,12,57,25.20
2018,07,14,12,58,25.20
2018,07,14,12,59,25.20
2018,07,14,13,00,25.20
2018,07,14,13,01,25.20
2018,07,14,13,02,25.20
2018,07,14,13,03,25.20
2018,07,14,13,04,25.20
2018,07,14,13,05,25.30
2018,07,14,13,06,25.30
2018,07,14,13,07,25.40
2018,07,14,13,08,25.50
2018,07,14,13,09,25.60
2018,07,14,13,10,25.70
2018,07,14,13,11,25.90
2018,07,14,13,12,25.90
2018,07,14,13,13,25.90
2018,07,14,13,14,25.90
2018,07,14,13,15,25.90
2018,07,14,13,16,25.90
2018,07,14,13,17,26.00
2018,07,14,13,18,26.00
2018,07,14,13,19,26.00
2018,07,14,13,20,26.00
2018,07,14,13,21,26.00
2018,07,14,13,22,26.00
2018,07,14,13,23,26.00
2018,07,14,13,24,26.10
2018,07,14,13,25,26.10
2018,07,14,13,26,26.20
2018,07,14,13,27,26.20
2018,07,14,13,28,26.20
2018,07,14,13,29,26.20
2018,07,14,13,30,26.20
2018,07,14,13,31,26.10
2018,07,14,13,32,26.10
2018,07,14,13,33,26.10
2018,07,14,13,34,26.10
2018,07,14,13,35,26.20
2018,07,14,13,36,26.20
2018,07,14,13,37,26.10
2018,07,14,13,38,26.10
2018,07,14,13,39,26.10
2018,07,14,13,40,26.10
2018,07,14,13,41,26.10
2018,07,14,13,42,26.20
2018,07,14,13,43,26.20
2018,07,14,13,44,26.20
2018,07,14,13,45,26.20
2018,07,14,13,46,26.20
2018,07,14,13,47,26.20
2018,07,14,13,48,26.20
2018,07,14,13,49,26.20
2018,07,14,13,50,26.20
2018,07,14,13,51,26.20
2018,07,14,13,52,26.20
2018,07,14,13,53,26.20
2018,07,14,13,54,26.30
2018,07,14,13,55,26.30
2018,07,14,13,56,26.30
2018,07,14,13,57,26.40
2018,07,14,13,58,26.40
2018,07,14,13,59,26.40
2018,07,14,14,00,26.40
2018,07,14,14,01,26.40
2018,07,14,14,02,26.40
2018,07,14,14,03,26.40
2018,07,14,14,04,26.40
2018,07,14,14,05,26.40
2018,07,14,14,06,26.40
2018,07,14,14,07,26.40
2018,07,14,14,08,26.40
2018,07,14,14,09,26.40
2018,07,14,14,10,26.40
2018,07,14,14,11,26.40
2018,07,14,14,12,26.50
2018,07,14,14,13,26.50
2018,07,14,14,14,26.60
2018,07,14,14,15,26.60
2018,07,14,14,16,26.60
2018,07,14,14,17,26.70
2018,07,14,14,18,26.70
2018,07,14,14,19,26.70
2018,07,14,14,20,26.70
2018,07,14,14,21,26.70
2018,07,14,14,22,26.70
2018,07,14,14,23,26.80
2018,07,14,14,24,26.70
2018,07,14,14,25,26.70
2018,07,14,14,26,26.70
2018,07,14,14,27,26.70
2018,07,14,14,28,26.70
2018,07,14,14,29,26.70
2018,07,14,14,30,26.80
2018,07,14,14,31,26.80
2018,07,14,14,32,26.90
2018,07,14,14,33,26.90
2018,07,14,14,34,26.90
2018,07,14,14,35,26.90
2018,07,14,14,36,27.00
2018,07,14,14,37,27.00
2018,07,14,14,38,27.10
2018,07,14,14,39,27.10
2018,07,14,14,40,27.20
2018,07,14,14,41,27.30
2018,07,14,14,42,27.30
2018,07,14,14,43,27.40
2018,07,14,14,44,27.40
2018,07,14,14,45,27.40
2018,07,14,14,46,27.40
2018,07,14,14,47,27.30
2018,07,14,14,48,27.30
2018,07,14,14,49,27.40
2018,07,14,14,50,27.40
2018,07,14,14,51,27.50
2018,07,14,14,52,27.50
2018,07,14,14,53,27.50
2018,07,14,14,54,27.50
2018,07,14,14,55,27.40
2018,07,14,14,56,27.40
2018,07,14,14,57,27.40
2018,07,14,14,58,27.40
2018,07,14,14,59,27.40
2018,07,14,15,00,27.30
2018,07,14,15,01,27.30
2018,07,14,15,02,27.30
2018,07,14,15,03,27.30
2018,07,14,15,04,27.30
2018,07,14,15,05,27.30
2018,07,14,15,06,27.40
2018,07,14,15,07,27.40
2018,07,14,15,08,27.50
2018,07,14,15,09,27.50
2018,07,14,15,10,27.60
2018,07,14,15,11,27.60
2018,07,14,15,12,27.70
2018,07,14,15,13,27.70
2018,07,14,15,14,27.70
2018,07,14,15,15,27.80
2018,07,14,15,16,27.80
2018,07,14,15,17,27.90
2018,07,14,15,18,28.00
2018,07,14,15,19,28.00
2018,07,14,15,20,28.10
2018,07,14,15,21,28.10
2018,07,14,15,22,28.10
2018,07,14,15,23,28.10
2018,07,14,15,24,28.20
2018,07,14,15,25,28.20
2018,07,14,15,26,28.20
2018,07,14,15,27,28.20
2018,07,14,15,28,28.20
2018,07,14,15,29,28.30
2018,07,14,15,30,28.30
2018,07,14,15,31,28.30
2018,07,14,15,32,28.30
2018,07,14,15,33,28.30
2018,07,14,15,34,28.20
2018,07,14,15,35,28.10
2018,07,14,15,36,28.10
2018,07,14,15,37,28.10
2018,07,14,15,38,28.10
2018,07,14,15,39,28.10
2018,07,14,15,40,28.20
2018,07,14,15,41,28.20
2018,07,14,15,42,28.20
2018,07,14,15,43,28.20
2018,07,14,15,44,28.10
2018,07,14,15,45,28.10
2018,07,14,15,46,28.20
2018,07,14,15,47,28.20
2018,07,14,15,48,28.30
2018,07,14,15,49,28.30
2018,07,14,15,50,28.40
2018,07,14,15,51,28.40
2018,07,14,15,52,28.50
2018,07,14,15,53,28.60
2018,07,14,15,54,28.60
2018,07,14,15,55,28.50
2018,07,14,15,56,28.50
2018,07,14,15,57,28.40
2018,07,14,15,58,28.40
2018,07,14,15,59,28.40
2018,07,14,16,00,28.40
2018,07,14,16,01,28.40
2018,07,14,16,02,28.30
2018,07,14,16,03,28.30
2018,07,14,16,04,28.40
2018,07,14,16,05,28.40
2018,07,14,16,06,28.40
2018,07,14,16,07,28.40
2018,07,14,16,08,28.40
2018,07,14,16,09,28.40
2018,07,14,16,10,28.30
2018,07,14,16,11,28.30
2018,07,14,16,12,28.30
2018,07,14,16,13,28.30
2018,07,14,16,14,28.40
2018,07,14,16,15,28.40
2018,07,14,16,16,28.50
2018,07,14,16,17,28.50
2018,07,14,16,18,28.60
2018,07,14,16,19,28.70
2018,07,14,16,20,28.80
2018,07,14,16,21,28.80
2018,07,14,16,22,28.90
2018,07,14,16,23,29.00
2018,07,14,16,24,29.10
2018,07,14,16,25,29.20
2018,07,14,16,26,29.20
2018,07,14,16,27,29.30
2018,07,14,16,28,29.30
2018,07,14,16,29,29.20
2018,07,14,16,30,29.20
2018,07,14,16,31,29.20
2018,07,14,16,32,29.20
2018,07,14,16,33,29.20
2018,07,14,16,34,29.20
2018,07,14,16,35,29.20
2018,07,14,16,36,29.20
2018,07,14,16,37,29.20
2018,07,14,16,38,29.10
2018,07,14,16,39,29.10
2018,07,14,16,40,29.10
2018,07,14,16,41,29.10
2018,07,14,16,42,29.10
2018,07,14,16,43,29.10
2018,07,14,16,44,29.10
2018,07,14,16,45,29.10
2018,07,14,16,46,29.10
2018,07,14,16,47,29.10
2018,07,14,16,48,29.00
2018,07,14,16,49,29.00
2018,07,14,16,50,29.00
2018,07,14,16,51,28.90
2018,07,14,16,52,28.90
2018,07,14,16,53,29.00
2018,07,14,16,54,29.00
2018,07,14,16,55,29.00
2018,07,14,16,56,29.00
2018,07,14,16,57,29.00
2018,07,14,16,58,29.00
2018,07,14,16,59,29.00
2018,07,14,17,00,29.00
2018,07,14,17,01,29.10
2018,07,14,17,02,29.10
2018,07,14,17,03,29.00
2018,07,14,17,04,29.00
2018,07,14,17,05,29.00
2018,07,14,17,06,29.10
2018,07,14,17,07,29.10
2018,07,14,17,08,29.10
2018,07,14,17,09,29.20
2018,07,14,17,10,29.20
2018,07,14,17,11,29.20
2018,07,14,17,12,29.30
2018,07,14,17,13,29.30
2018,07,14,17,14,29.30
2018,07,14,17,15,29.20
2018,07,14,17,16,29.20
2018,07,14,17,17,29.20
2018,07,14,17,18,29.20
2018,07,14,17,19,29.20
2018,07,14,17,20,29.20
2018,07,14,17,21,29.20
2018,07,14,17,22,29.20